Location: *
(46.1866°S, 178.5290°W)
Time: 18:22:43
(UTC+00:00)

Cosmos 2151 - Pass Details

Date: 19 May 2021
Orbit: 580 x 602 km, 82.5° (Epoch: 17 June)

Event Time Altitude Azimuth Distance (km) Brightness Sun altitude
Rises 06:04:05 0° 352° (N) 2,799 6.7 -16.4°
Reaches altitude 10° 06:06:15 10° 352° (N) 1,909 5.8 -16.8°
Maximum altitude 06:10:29 88° 258° (WSW) 600 2.9 -17.5°
Drops below altitude 10° 06:14:48 10° 171° (S) 1,946 5.4 -18.3°
Enters shadow 06:16:00 - 171° (S) 2,439 5.9 -18.5°
